This demonstration page uses our WeatherBlox Daily Observations layout. Learn more.

Left ArrowRight Arrow

Hourly Observations for November 20, 2018

Temp ( °F °C ) Dew Point ( °F °C ) Humidity (%) Winds ( mph kmh ) Pressure ( in mb ) Visibility ( mi km ) Precip ( " mm )
12:52 am 00:52 Clear 18 -7.8 14 -10 84 84 NNW 6 9 30.37 1029 10 16 0.00 0.00
1:52 am 01:52 Clear 18 -7.8 14 -10 84 84 N 5 7 30.37 1029 9 14 0.00 0.00
2:52 am 02:52 Clear 19 -7.2 14 -10 81 81 N 5 7 30.38 1029 10 16 0.00 0.00
3:52 am 03:52 Clear 17 -8.3 13 -10.6 84 84 N 3 6 30.36 1028 10 16 0.00 0.00
4:52 am 04:52 Clear 17 -8.3 13 -10.6 84 84 Calm 30.36 1028 10 16 0.00 0.00
5:52 am 05:52 Clear 17 -8.3 12 -11.1 80 80 Calm 30.37 1029 10 16 0.00 0.00
6:52 am 06:52 Mostly Clear 17 -8.3 13 -10.6 84 84 SE 3 6 30.36 1028 10 16 0.00 0.00
7:52 am 07:52 Cloudy 19 -7.2 14 -10 81 81 SSE 9 15 30.35 1028 10 16 0.00 0.00
8:52 am 08:52 Mostly Sunny 22 -5.6 17 -8.3 82 82 SSE 9 15 30.36 1028 9 14 0.00 0.00
9:52 am 09:52 Mostly Sunny 26 -3.3 18 -7.8 71 71 S 12 19 30.34 1028 10 16 0.00 0.00
10:52 am 10:52 Sunny 31 -0.6 20 -6.7 64 64 S 13 20 30.31 1026 10 16 0.00 0.00
11:52 am 11:52 Mostly Sunny 35 1.7 22 -5.6 59 59 S 13 20 30.27 1025 10 16 0.00 0.00
12:52 pm 12:52 Mostly Sunny 40 4.4 25 -3.9 55 55 SSW 12 19 30.23 1024 10 16 0.00 0.00
1:52 pm 13:52 Sunny 43 6.1 28 -2.2 56 56 S 12 19 30.19 1022 10 16 0.00 0.00
2:52 pm 14:52 Sunny 46 7.8 30 -1.1 54 54 S 13 20 30.16 1021 10 16 0.00 0.00
3:52 pm 15:52 Sunny 47 8.3 32 0 56 56 S 12 19 30.15 1021 10 16 0.00 0.00
4:52 pm 16:52 Sunny 39 3.9 31 -0.6 73 73 SSE 9 15 30.16 1021 10 16 0.00 0.00
5:52 pm 17:52 Clear 36 2.2 30 -1.1 79 79 SSE 10 17 30.16 1021 10 16 0.00 0.00
6:52 pm 18:52 Clear 37 2.8 31 -0.6 79 79 SE 8 13 30.16 1021 10 16 0.00 0.00
7:52 pm 19:52 Clear 35 1.7 30 -1.1 82 82 SSE 10 17 30.16 1021 10 16 0.00 0.00
8:52 pm 20:52 Clear 34 1.1 29 -1.7 82 82 SE 7 11 30.16 1021 10 16 0.00 0.00
9:52 pm 21:52 Clear 34 1.1 29 -1.7 82 82 SSE 8 13 30.16 1022 10 16 0.00 0.00
10:52 pm 22:52 Clear 33 0.6 29 -1.7 85 85 SE 8 13 30.17 1022 10 16 0.00 0.00
11:52 pm 23:52 Clear 32 0 28 -2.2 85 85 SSE 8 13 30.17 1022 10 16 0.00 0.00

Powered by AerisWeather